GFSSGP_250_spd_000.txt.gz
Wind_Speed
19 15 15 14 15 14 4 4 7 5 4 4 1 4 8 14 14 15 17 16 16 13 17 14 10 8 6 6 10 13 20 32 35 40 40 42 46 49 50 50 53 55 54 54 48 53 54 57 55
18 19 16 13 11 12 11 3 6 8 7 3 3 3 7 10 13 17 18 19 19 17 17 17 17 13 11 8 7 8 8 14 21 27 30 31 34 38 43 46 45 45 53 55 56 54 54 54 60
16 19 22 19 13 10 9 8 2 5 6 4 1 2 4 5 7 13 15 15 18 19 19 19 19 16 16 17 13 8 9 8 9 12 16 20 24 29 26 32 40 43 44 49 51 54 54 56 55
15 18 20 22 20 13 10 5 4 2 4 4 4 2 3 4 3 6 8 11 11 12 13 12 16 15 17 17 15 12 12 10 11 13 12 13 16 20 26 31 33 31 35 41 53 55 56 61 58
15 17 18 19 20 18 14 9 3 2 3 3 6 5 6 5 5 3 4 5 6 6 8 9 9 9 9 8 9 7 10 11 9 8 6 7 6 8 15 26 28 28 29 32 34 41 53 62 64
15 16 17 16 16 16 15 11 6 5 4 1 3 5 5 3 5 3 0 1 2 2 1 4 7 6 5 4 4 2 3 5 5 4 4 7 4 4 9 18 26 25 25 26 27 31 37 41 43
18 17 15 16 14 15 15 14 11 9 10 9 7 7 6 5 7 7 6 5 5 4 2 2 0 1 2 4 4 5 7 7 7 8 6 5 5 5 6 12 14 30 17 18 29 26 28 40 40
19 18 18 17 16 15 16 14 13 11 10 15 14 13 12 11 10 9 9 9 8 8 7 7 5 7 5 5 6 6 8 11 10 11 11 11 12 9 12 15 4 22 32 27 16 32 17 28 36
25 23 21 20 19 18 17 15 12 10 11 13 15 16 16 14 14 13 13 11 11 11 12 9 10 10 9 9 12 13 15 14 15 17 16 19 21 22 22 20 20 18 18 33 27 22 28 13 31
30 27 26 23 22 21 19 19 18 14 13 13 13 17 18 18 18 16 15 15 15 13 13 14 11 11 14 15 17 19 18 19 21 22 24 24 24 29 27 28 29 27 26 20 27 27 36 30 20
36 33 31 29 26 24 23 22 21 17 18 13 14 16 17 20 18 18 16 16 16 18 18 17 16 15 16 21 23 25 25 25 28 28 28 28 31 30 32 33 33 35 36 37 37 34 23 36 27
33 35 36 34 33 29 27 26 26 19 20 18 17 16 18 20 22 21 19 18 18 18 20 21 20 20 23 27 29 28 29 30 32 33 35 35 36 37 37 36 37 37 40 43 44 42 39 33 44
36 38 38 38 38 35 33 30 31 24 22 24 23 20 23 21 21 22 22 22 22 23 24 24 26 29 33 34 35 35 37 37 38 39 39 39 41 41 41 41 43 42 46 48 50 49 49 51 55
35 36 37 38 40 41 40 37 35 33 27 29 29 26 25 26 23 25 24 27 26 28 27 29 30 31 32 33 36 39 40 41 43 43 42 43 44 44 44 44 46 48 52 52 55 56 59 60 64
30 32 36 39 36 39 37 39 41 43 38 34 34 32 30 29 28 28 26 28 29 32 30 32 33 33 36 38 37 39 41 42 44 44 43 43 47 48 48 49 51 52 56 59 60 61 63 65 70
28 28 29 36 36 34 31 34 44 43 42 42 39 41 35 33 32 33 28 28 30 32 32 34 35 37 38 39 39 42 43 44 44 43 44 45 49 49 51 54 56 58 62 63 65 67 69 69 75
36 29 30 31 33 29 29 30 45 42 43 46 48 46 41 37 35 36 37 34 35 35 37 38 40 41 42 44 43 44 46 47 48 48 48 49 52 54 58 60 60 65 66 68 71 74 78 78 81
37 33 28 30 32 23 26 31 39 43 43 45 52 50 44 40 38 41 40 38 43 41 41 43 44 45 47 48 48 49 51 50 50 50 50 52 56 60 62 63 65 68 72 73 76 79 82 84 85
37 35 30 34 35 20 29 25 33 39 45 44 48 52 50 45 43 39 43 44 44 44 45 47 48 48 50 51 52 52 53 50 51 52 52 56 60 62 64 67 71 73 74 78 81 82 86 92 98
41 38 39 37 38 30 31 28 31 38 39 46 44 48 51 46 41 40 39 42 43 45 48 49 50 50 53 55 54 51 51 52 52 54 57 60 62 66 71 73 75 77 79 83 86 90 93 97 102
46 46 44 42 46 38 34 28 34 35 38 42 50 50 48 40 37 42 42 41 41 43 46 49 50 52 54 55 53 52 53 54 57 60 63 66 69 70 70 73 75 79 82 87 92 97 101 102 104
48 53 48 44 39 37 34 23 30 35 33 37 44 52 47 45 45 46 48 48 48 49 51 52 52 53 56 59 58 57 56 56 59 63 66 68 70 73 74 77 81 84 89 93 98 101 101 103 105
53 53 51 48 43 36 36 40 27 26 38 40 48 52 57 54 56 54 54 53 52 53 52 52 54 58 61 63 63 62 60 61 65 68 70 75 78 82 84 84 87 90 94 98 102 106 108 107 110
63 60 58 53 47 33 41 49 32 39 39 42 45 51 54 54 59 59 59 59 60 59 57 57 57 58 63 68 72 72 69 68 68 71 75 80 84 87 89 91 94 97 100 102 104 105 106 106 105
65 63 61 59 51 40 49 50 44 48 50 50 50 51 56 56 59 66 68 69 69 68 67 65 65 66 70 73 76 81 83 78 76 76 77 82 87 89 91 93 97 100 102 103 105 105 104 105 108
70 70 68 74 63 54 55 46 41 50 52 55 57 59 60 64 66 67 73 74 74 74 73 71 71 73 76 77 74 79 85 86 77 79 83 86 89 90 91 95 98 100 100 98 99 100 101 103 104
78 76 80 83 72 71 54 52 47 54 58 58 57 60 65 69 71 72 75 76 77 79 79 80 83 84 83 80 78 81 82 86 88 86 86 89 89 91 94 96 97 98 99 97 99 101 100 105 105
87 85 84 83 83 81 63 65 54 54 54 60 66 71 72 71 73 76 76 78 81 82 86 87 86 88 87 88 90 89 87 90 92 92 87 87 90 90 93 96 96 95 98 99 101 102 103 104 105
99 88 88 88 90 91 85 56 55 64 69 74 78 79 81 81 79 79 79 82 83 87 89 85 86 86 91 85 87 86 88 94 92 92 95 95 94 95 95 95 98 99 100 102 103 106 105 103 104
106 100 99 108 105 103 104 77 72 80 73 81 83 84 94 96 92 93 89 99 85 85 79 85 81 81 84 83 86 91 94 93 96 95 95 95 97 98 98 100 99 100 103 104 106 104 103 99 100

GFSSGP_250_spd_003.txt.gz
Wind_Speed
17 19 19 14 9 6 8 8 10 9 9 9 7 2 10 11 12 15 16 13 9 7 9 10 11 12 13 13 17 26 39 48 46 48 51 57 62 61 57 56 58 58 55 39 46 54 55 55 56
12 15 18 19 14 9 6 9 9 9 8 5 6 6 7 9 15 16 14 15 11 11 13 14 13 10 10 14 17 19 24 32 43 50 55 56 56 58 59 58 59 63 63 63 61 56 51 51 52
12 14 17 18 17 12 10 11 9 7 4 3 3 5 5 3 8 11 12 13 13 14 16 15 16 13 13 12 14 16 16 21 28 35 41 44 52 55 55 56 56 56 58 58 61 61 57 58 52
13 13 13 14 15 15 12 10 8 9 4 1 1 4 3 7 4 5 8 11 12 16 19 20 17 18 16 16 15 13 13 15 16 18 21 27 28 32 38 44 48 47 48 53 54 53 52 56 58
14 15 13 12 12 13 13 12 6 7 8 5 2 4 3 5 6 6 8 5 8 10 11 15 14 15 18 20 16 15 15 16 14 14 15 15 15 17 24 29 35 38 38 39 40 40 43 45 48
20 19 18 15 12 11 12 13 10 8 9 9 8 5 5 5 5 4 5 7 7 7 7 10 9 9 15 16 15 14 15 15 15 14 14 15 13 12 14 16 22 26 31 34 35 36 35 35 39
22 21 21 18 15 13 11 11 12 10 10 14 14 12 9 7 7 7 6 7 8 8 7 7 8 8 6 6 8 7 5 6 10 10 11 15 13 9 10 14 15 14 25 27 21 23 27 31 36
28 26 24 21 19 17 16 11 11 12 13 10 18 18 16 14 12 12 11 11 11 12 11 11 10 11 10 10 7 5 5 4 5 4 3 6 8 11 10 15 15 16 22 33 25 22 21 33 30
30 31 29 27 24 22 20 17 13 12 13 15 16 16 19 19 17 16 15 14 13 15 15 15 15 13 12 12 10 10 11 10 10 9 10 12 10 14 17 15 19 17 18 23 29 33 39 22 33
28 30 32 31 31 29 26 21 21 16 16 16 18 17 18 20 22 21 19 17 16 17 17 17 18 16 15 13 14 15 15 16 16 16 16 16 19 20 21 23 22 21 20 22 23 19 47 39 32
33 28 29 33 35 33 31 29 25 24 15 21 16 21 17 20 20 23 23 20 19 19 20 20 20 21 20 19 20 21 22 22 21 22 24 24 24 26 26 28 28 27 26 28 28 24 22 27 22
32 30 29 28 33 35 36 32 30 32 19 25 20 22 23 21 21 21 23 23 22 21 21 21 24 25 27 25 25 27 29 29 30 29 30 30 32 32 32 32 32 30 31 30 29 29 30 31 30
26 27 28 27 29 28 34 37 35 41 28 27 27 26 25 26 23 24 21 23 24 23 23 22 23 26 29 29 31 31 30 31 33 35 36 38 35 37 36 39 39 37 35 35 34 37 37 36 40
26 25 25 27 26 26 28 31 35 44 36 33 32 31 31 30 29 30 26 25 26 29 28 26 27 30 30 30 29 31 31 33 34 34 37 39 39 39 41 39 41 40 40 40 40 42 45 44 48
29 25 26 33 26 22 25 32 35 34 38 42 36 38 38 35 33 34 33 32 32 34 36 33 32 34 36 35 34 34 35 36 36 35 37 38 39 41 43 43 44 44 46 45 45 49 50 51 53
30 28 27 37 30 24 21 24 36 33 27 39 45 42 42 44 38 38 35 36 37 36 37 37 38 38 38 39 39 40 40 42 41 40 41 43 45 45 46 47 48 48 48 48 51 52 55 57 60
32 29 29 34 34 23 20 26 39 38 29 33 40 45 46 41 41 43 43 42 39 42 43 41 42 42 42 43 44 45 46 46 46 46 47 48 48 47 49 51 53 52 53 53 55 57 59 62 67
36 35 32 33 39 28 23 28 33 36 32 37 40 40 41 42 43 41 44 46 40 42 46 47 47 48 48 49 49 50 50 50 50 51 52 52 51 50 52 54 55 55 56 58 61 62 64 67 69
39 35 35 38 43 30 28 27 32 39 38 36 37 39 35 33 39 41 42 45 42 43 47 49 49 51 53 52 51 52 52 54 54 55 54 53 52 54 55 58 60 60 63 65 65 67 69 70 71
45 40 37 37 45 41 35 32 30 39 37 41 38 39 38 33 34 37 40 41 43 42 43 45 47 49 50 52 54 55 55 58 58 55 54 55 56 57 58 62 64 65 67 67 68 70 72 75 79
49 49 48 41 47 42 39 32 28 36 40 39 45 43 42 41 36 34 36 36 37 39 43 45 47 48 49 51 53 56 59 61 58 59 60 60 62 62 62 64 66 68 71 70 71 74 78 82 85
46 56 51 48 47 40 42 25 28 36 40 39 45 49 49 46 45 43 44 46 46 48 49 51 52 52 52 53 56 59 62 63 65 66 64 62 64 65 67 69 71 73 76 76 76 79 83 86 90
57 60 54 51 48 46 43 45 36 40 41 44 48 53 54 57 57 54 52 51 51 52 53 54 55 55 57 58 60 62 65 67 67 67 67 68 70 72 73 74 75 76 80 80 80 81 86 89 94
67 65 65 63 60 50 48 54 31 41 42 46 48 50 51 57 58 59 59 58 55 55 57 58 58 57 58 60 62 64 67 70 74 75 75 75 77 78 79 82 82 81 84 89 90 90 92 94 93
80 75 74 74 69 60 60 49 39 47 49 49 50 52 52 53 57 61 67 66 65 64 64 63 63 63 63 67 69 70 73 78 82 89 90 85 83 82 82 84 87 88 90 89 90 93 94 93 96
82 85 84 85 75 68 66 54 45 48 55 55 58 59 58 59 60 61 64 67 65 65 66 67 69 68 69 71 71 75 78 82 84 84 92 93 93 91 87 87 89 91 91 96 92 92 94 97 101
87 87 86 92 79 82 69 58 52 53 61 62 63 61 63 65 68 70 68 66 74 76 73 75 73 72 73 75 75 78 81 81 85 86 90 92 89 88 87 88 91 91 92 92 91 93 97 100 104
98 98 88 93 101 106 85 70 59 64 62 62 57 63 68 71 73 75 77 81 78 72 79 84 86 84 85 83 84 90 90 86 86 86 88 91 93 92 92 93 96 96 99 97 98 95 97 97 98
109 113 106 97 100 104 103 87 92 67 64 68 76 73 77 76 78 82 86 89 82 90 92 93 91 86 89 92 95 100 99 99 97 95 92 92 95 97 98 99 102 98 97 98 96 99 103 99 100
117 123 125 121 111 118 121 115 92 93 95 96 94 99 99 90 100 101 103 95 93 94 99 101 98 91 90 91 93 99 104 107 109 109 108 102 103 100 98 97 100 97 98 99 98 99 103 105 105

GFSSGP_250_spd_006.txt.gz
Wind_Speed
12 14 16 17 12 12 15 15 10 13 13 12 11 8 12 14 14 13 9 9 6 7 11 14 17 22 27 27 30 34 42 45 48 53 55 57 59 57 54 46 46 50 54 57 59 58 55 56 56
6 9 12 15 16 13 11 12 12 11 10 8 9 9 9 13 16 13 13 8 8 9 9 13 14 16 19 21 26 28 35 45 46 49 55 57 61 63 62 63 57 49 50 49 56 56 56 55 53
8 7 9 10 12 16 15 13 13 10 9 6 5 8 6 9 9 9 11 13 11 9 9 12 14 14 13 17 21 22 25 30 42 46 50 54 56 59 62 60 64 66 58 56 56 49 51 49 54
14 13 10 9 9 11 13 15 8 10 6 6 5 8 8 8 9 9 9 12 12 12 11 14 14 13 15 15 16 18 20 23 26 34 47 52 51 51 51 52 56 65 64 62 61 64 64 67 67
19 17 16 15 13 11 12 12 13 9 12 7 6 7 9 11 12 12 12 12 12 13 17 16 17 17 16 18 16 17 17 19 21 24 27 30 37 45 48 50 56 58 59 59 59 60 57 60 64
23 23 21 21 20 15 13 12 11 11 12 15 10 10 10 12 12 12 13 12 12 14 17 15 15 16 17 18 17 16 17 18 19 20 21 24 28 32 36 37 38 42 45 47 47 48 51 51 48
28 27 26 27 25 23 18 15 15 14 11 15 17 17 15 14 14 14 13 14 15 14 15 16 15 14 19 22 20 18 19 21 18 18 17 19 20 20 20 23 26 28 29 32 36 39 41 41 39
31 32 32 31 30 28 25 22 19 19 18 12 16 17 21 20 18 17 16 16 17 17 17 18 17 18 17 22 21 19 18 17 18 20 19 17 19 20 19 19 19 19 21 20 25 29 31 31 31
27 29 33 36 35 34 30 28 26 23 21 21 18 17 18 23 24 22 20 19 18 19 19 20 20 22 23 21 19 19 18 16 14 15 16 14 15 19 21 19 20 23 23 25 23 30 33 27 31
27 27 27 30 34 36 37 34 31 30 26 26 22 24 21 21 25 27 26 24 22 21 20 22 23 24 25 23 22 22 20 19 19 19 19 19 19 20 21 21 21 23 25 26 27 27 31 32 34
19 19 20 23 26 32 37 40 35 35 32 26 30 24 27 24 23 26 29 29 27 26 25 26 25 25 28 27 25 25 24 24 24 24 24 23 23 24 25 26 27 30 29 28 28 28 32 33 38
18 18 15 20 20 21 25 33 39 42 33 33 32 31 30 29 27 25 28 28 29 29 28 29 28 29 29 30 31 30 29 28 28 30 30 30 28 30 30 32 33 34 33 33 31 31 32 32 31
20 24 21 20 20 19 19 21 25 39 32 34 37 36 33 33 30 28 28 26 27 30 30 31 31 32 33 34 34 34 34 32 33 31 31 30 32 33 34 34 37 39 36 37 37 34 34 33 34
25 24 26 28 25 21 17 26 26 29 26 30 36 40 40 38 36 34 32 31 32 30 30 31 32 34 35 35 38 37 36 34 35 35 36 34 34 34 34 35 37 37 38 40 38 39 37 38 37
24 21 24 32 30 24 20 32 33 28 26 32 33 36 40 43 42 39 36 34 36 38 37 36 36 37 40 40 41 38 38 37 36 36 36 35 35 37 37 38 40 40 41 43 42 42 42 43 43
31 26 28 38 32 26 20 27 40 31 28 32 33 37 36 41 45 45 41 40 41 40 40 43 42 42 45 47 47 44 44 42 40 42 42 40 40 43 44 45 45 45 44 45 45 46 46 48 49
40 32 30 36 40 32 24 23 41 40 31 32 33 33 34 34 33 43 48 50 47 45 46 47 47 47 48 49 50 50 48 48 47 47 48 47 48 49 49 50 50 51 51 48 49 51 51 53 54
41 38 37 35 47 36 30 25 33 45 39 38 38 36 33 28 27 33 37 49 51 49 48 51 51 50 52 55 57 56 55 55 55 54 54 54 54 54 55 56 55 55 54 53 54 55 57 58 60
37 37 37 43 48 42 36 30 31 40 46 49 46 46 41 36 35 36 36 38 47 50 51 52 52 53 53 55 57 59 60 59 62 61 60 59 58 57 58 58 56 56 57 58 60 62 62 64 65
45 42 38 38 47 43 38 31 34 39 47 52 51 51 45 40 39 38 37 37 39 44 45 47 51 54 56 57 57 57 58 59 59 59 60 60 59 60 59 58 60 62 64 65 67 67 67 67 69
51 52 49 43 45 42 41 30 39 40 41 51 57 54 49 45 41 40 38 39 39 40 41 41 42 47 50 52 52 54 55 55 56 58 59 61 60 60 61 64 66 66 67 67 68 70 72 75 76
54 65 57 53 50 41 45 26 40 46 44 44 54 58 61 57 52 47 47 44 44 45 47 49 51 51 52 53 54 55 56 57 59 61 63 64 65 65 66 68 68 69 69 71 73 76 79 83 85
65 71 69 64 57 50 46 44 34 46 50 49 52 55 61 62 61 59 56 54 53 51 51 54 56 57 57 56 55 56 57 59 63 65 67 68 69 69 69 70 71 74 76 76 78 81 82 84 86
80 82 75 70 70 48 55 59 33 49 52 53 52 54 54 60 60 60 63 62 60 59 59 57 59 58 59 58 58 59 62 63 64 67 70 73 74 73 74 77 78 80 83 84 85 87 89 90 93
86 86 86 74 74 78 75 71 51 56 58 60 61 61 59 59 61 63 65 65 65 63 63 62 62 60 58 58 60 61 62 63 65 69 73 77 79 78 76 75 76 81 81 82 82 82 84 86 88
92 87 92 101 88 74 84 74 62 65 65 60 56 60 68 68 63 62 70 72 72 72 70 71 70 68 66 63 63 64 67 70 74 75 78 81 83 84 86 88 86 85 88 84 83 87 91 91 91
93 93 100 107 102 101 86 83 77 78 72 71 72 79 77 77 77 73 73 76 74 77 75 77 74 73 69 72 71 74 76 79 81 84 87 85 88 91 93 93 92 94 98 95 94 94 96 98 100
103 103 102 109 116 111 101 105 99 88 84 86 89 81 91 79 86 91 80 85 81 80 87 87 82 78 77 81 81 81 83 90 90 94 95 92 92 92 94 95 98 100 102 103 103 104 103 103 104
113 121 121 121 121 124 123 115 101 103 99 98 96 98 98 94 95 100 94 91 89 90 87 89 91 89 84 87 90 90 91 95 96 94 99 103 98 99 102 101 103 106 108 109 110 108 106 107 109
122 136 140 137 134 132 136 136 110 104 107 108 100 101 113 103 101 107 108 102 102 103 99 97 98 93 97 94 95 98 102 103 100 99 100 103 103 104 105 108 113 111 111 112 114 112 115 117 107

GFSSGP_250_spd_009.txt.gz
Wind_Speed
11 11 13 14 13 13 13 15 15 14 14 11 12 14 16 18 16 16 15 15 10 9 12 17 23 24 24 26 32 39 47 51 52 54 56 54 50 50 49 55 55 55 56 54 54 53 52 53 53
12 15 14 15 14 14 13 11 13 12 11 11 8 10 13 14 11 14 13 14 13 11 10 14 16 21 27 25 28 35 43 50 51 54 56 61 59 53 52 53 57 55 56 57 58 58 56 54 56
14 15 15 16 16 15 16 13 12 11 10 9 8 8 11 11 12 10 12 14 14 13 10 11 13 15 18 23 28 30 34 41 47 52 54 56 59 59 60 58 57 55 51 51 50 52 50 54 54
20 19 18 17 19 17 14 15 12 12 10 10 8 8 10 13 13 10 10 13 13 14 12 11 13 15 16 18 23 27 30 32 37 47 52 57 60 61 59 61 63 63 63 63 58 52 53 50 56
26 24 23 22 21 23 22 18 15 13 12 10 11 7 10 13 14 14 12 12 14 14 14 15 15 15 16 17 17 20 23 27 30 34 40 50 50 54 53 55 57 57 58 62 64 65 67 68 56
33 30 27 27 24 25 25 24 21 19 14 13 16 14 12 13 16 14 16 15 14 15 15 16 16 16 15 16 18 18 20 21 22 25 30 36 43 47 50 52 54 55 54 53 58 61 63 67 67
27 31 34 32 30 28 29 29 27 23 20 18 16 18 19 16 17 17 16 16 18 17 17 17 17 16 18 20 19 18 17 19 21 22 25 27 29 32 34 37 42 44 47 52 54 55 56 61 61
28 26 28 32 36 35 32 33 31 30 26 24 21 19 21 22 21 20 20 20 19 20 21 21 21 20 19 21 22 21 18 19 21 20 20 22 22 23 24 25 28 31 34 33 33 35 37 40 45
25 25 26 28 28 32 35 37 35 34 34 29 28 26 22 23 24 25 25 25 24 24 25 25 25 26 25 24 25 25 24 22 21 23 21 20 21 21 24 26 22 23 23 23 24 26 27 29 32
18 19 17 22 24 27 29 32 34 40 39 33 36 31 29 26 26 27 28 28 28 26 25 27 27 29 29 30 28 29 28 27 25 23 24 26 23 22 22 24 26 26 27 27 28 29 32 32 33
13 11 11 15 14 17 20 26 30 36 41 33 38 39 35 32 30 30 29 31 31 32 29 29 28 29 30 32 34 32 31 30 28 25 26 26 26 26 26 27 29 30 31 31 32 32 32 35 35
13 15 12 16 13 14 16 19 20 28 27 28 37 43 43 37 34 32 32 33 31 34 33 34 33 32 32 33 36 36 33 34 33 33 32 31 32 32 32 34 33 34 35 35 36 37 39 39 39
20 22 23 20 19 18 17 24 23 27 18 28 28 38 44 44 40 36 37 34 32 36 32 35 35 36 34 37 37 38 38 38 38 38 38 36 36 39 39 39 38 37 37 39 40 42 43 42 43
24 23 22 25 22 21 19 29 28 29 22 29 26 27 32 43 46 43 42 39 37 37 35 36 35 35 37 40 39 40 41 41 41 41 40 41 39 38 38 38 37 36 37 38 39 40 42 43 43
29 27 30 31 31 26 21 31 35 32 28 33 33 30 30 32 36 45 43 45 43 43 42 40 39 38 39 38 40 42 41 42 43 44 43 42 42 39 38 38 39 38 39 39 40 43 44 44 46
38 32 34 41 40 34 31 27 43 37 33 36 35 34 32 30 30 35 43 45 46 48 48 46 45 46 45 44 43 44 46 45 46 47 48 47 47 46 44 42 44 45 45 46 46 45 48 50 51
40 35 38 40 48 38 35 27 42 42 42 42 44 37 35 31 29 29 31 36 47 51 50 50 50 50 49 48 49 51 51 52 52 54 54 54 52 52 50 51 52 52 50 52 52 52 53 54 53
41 39 39 39 52 43 36 33 33 46 44 45 51 48 41 36 36 34 33 35 39 43 47 54 57 57 56 55 55 55 55 57 55 58 58 59 58 57 59 59 59 57 57 58 56 56 56 55 56
43 40 39 41 47 40 36 29 38 42 50 51 49 53 51 46 45 42 41 39 42 42 41 42 49 59 60 59 59 59 60 60 59 59 60 64 64 64 64 64 64 63 61 59 60 58 55 56 57
49 46 42 41 44 41 38 30 33 40 45 55 56 53 54 52 49 47 42 40 39 43 46 45 43 45 51 56 59 60 60 60 64 64 64 62 62 63 64 62 61 61 60 60 60 59 61 63 64
58 57 50 42 44 38 35 26 36 44 48 49 55 54 54 54 54 54 53 48 45 45 46 49 46 45 42 45 48 50 54 57 59 59 58 58 59 60 60 59 58 59 60 61 63 64 64 64 66
54 66 62 58 51 45 47 27 37 43 48 49 49 52 56 58 57 57 60 60 58 57 53 53 54 52 50 51 51 52 55 55 57 57 58 59 59 60 61 60 60 61 62 64 67 68 69 69 70
54 66 66 64 65 62 49 60 38 39 47 50 52 57 58 63 67 64 60 60 65 66 62 61 59 59 60 59 57 58 61 60 60 58 58 59 61 63 64 64 63 62 65 68 71 74 75 76 78
77 80 83 79 71 51 64 71 30 49 48 53 52 55 61 61 67 72 73 70 70 69 62 60 64 65 66 65 63 63 63 64 64 63 63 65 66 67 69 68 65 65 66 68 72 74 75 77 79
81 85 86 87 90 78 72 63 46 56 61 60 61 62 69 74 65 68 76 80 78 74 70 69 64 70 71 72 72 69 66 66 66 65 67 69 69 69 69 70 69 71 71 71 73 78 84 86 87
85 92 94 100 94 90 89 80 71 72 64 67 73 79 85 86 85 82 75 76 83 83 74 70 74 76 70 71 73 74 73 71 71 71 74 74 75 75 77 80 80 80 81 83 82 82 84 85 88
96 99 100 112 109 106 96 95 89 83 80 79 77 85 91 91 96 91 87 88 82 86 89 86 89 93 89 88 81 76 76 73 73 76 78 77 79 85 86 87 88 91 90 89 94 90 91 94 95
110 108 109 111 116 113 111 107 98 90 90 98 103 90 95 99 102 108 111 103 104 95 100 98 96 94 95 89 94 89 86 81 81 78 80 88 90 91 95 96 98 98 98 101 98 98 102 101 101
114 113 115 119 120 124 125 125 104 98 97 101 105 103 112 112 110 112 111 110 110 109 106 106 110 99 92 99 102 99 91 89 91 90 93 96 98 98 99 98 100 104 106 106 109 109 107 104 107
123 121 115 126 129 136 139 141 120 115 110 105 110 122 125 117 124 122 125 117 116 117 118 113 112 108 107 103 101 107 104 101 100 102 101 99 106 104 105 104 108 108 109 113 114 112 115 114 114

GFSSGP_250_spd_012.txt.gz
Wind_Speed
16 16 18 17 16 17 18 19 20 21 18 15 12 11 14 15 15 13 11 11 8 10 9 13 18 22 23 27 34 38 47 53 56 58 58 58 58 59 62 65 62 58 58 56 58 56 54 54 55
21 20 21 20 18 17 17 18 19 17 16 14 12 11 12 11 14 13 13 14 13 11 10 12 14 18 24 24 27 34 39 46 51 54 55 57 58 56 53 59 64 59 58 57 62 61 60 59 58
26 24 24 24 23 21 19 19 19 19 17 15 14 11 12 13 13 12 12 15 15 14 11 11 12 14 17 22 25 26 33 37 44 49 54 57 58 58 59 55 55 55 56 55 60 60 59 57 58
30 30 27 27 27 27 24 21 22 20 19 19 14 12 11 11 11 13 15 16 16 14 14 12 10 12 14 17 21 28 29 30 35 43 49 53 55 59 58 57 57 53 53 53 49 53 57 59 58
26 28 32 30 31 30 29 26 24 24 21 21 20 14 14 13 12 12 15 16 16 15 16 15 13 14 13 14 18 21 25 29 31 34 39 45 52 55 57 59 62 59 58 58 58 57 57 57 58
26 26 27 30 34 34 33 31 28 26 26 23 22 22 18 16 15 15 15 17 17 16 15 16 17 14 14 15 15 17 20 25 28 30 34 36 41 48 56 58 58 62 63 64 65 65 66 64 66
25 27 27 26 27 33 36 35 33 31 29 28 25 23 23 21 19 18 19 18 18 19 19 19 18 15 15 17 17 17 17 19 22 24 26 28 33 35 40 49 54 57 60 62 62 61 61 62 63
29 28 28 27 26 25 29 32 37 38 34 31 29 28 26 25 24 23 22 22 22 21 20 22 21 21 21 20 19 20 20 19 18 21 23 23 24 24 29 33 38 42 47 50 53 54 53 52 53
23 26 24 25 26 27 27 29 30 34 35 35 33 33 31 31 28 26 24 26 26 25 25 24 25 24 25 26 24 24 24 23 22 21 23 23 23 24 25 26 29 31 32 33 34 34 35 35 35
17 20 11 15 16 17 18 19 25 30 30 31 36 36 35 35 34 33 28 27 27 30 29 29 28 29 30 30 30 30 28 30 28 27 24 25 25 25 24 24 25 27 27 25 27 27 27 30 31
18 17 11 15 13 15 14 18 22 24 23 24 25 32 35 34 37 39 36 33 30 30 31 32 32 31 31 32 33 34 33 31 31 31 31 29 29 30 30 28 27 28 29 30 32 32 32 33 36
18 21 19 21 17 17 19 24 26 25 19 29 25 23 22 35 35 36 40 37 35 33 32 33 35 35 34 34 33 33 35 36 36 36 35 34 31 31 30 30 31 32 33 34 34 35 36 39 39
23 27 26 27 23 24 21 25 31 28 20 31 28 27 24 21 28 36 40 40 38 38 37 36 35 35 36 36 37 37 35 39 40 40 39 39 38 37 38 38 38 37 38 39 39 39 40 42 43
29 32 33 33 30 27 23 28 33 32 27 34 32 32 33 28 23 24 32 41 44 44 42 41 40 38 37 35 35 38 39 39 42 43 43 43 45 44 43 43 43 42 42 44 43 42 42 41 42
32 32 38 43 38 37 31 31 43 39 36 36 39 34 32 35 31 26 25 28 39 48 47 46 45 45 44 41 39 37 36 38 42 44 46 47 48 49 48 47 46 45 44 45 43 43 44 43 43
32 29 33 41 41 38 34 30 44 41 38 39 40 40 35 32 33 35 30 25 25 32 45 51 50 49 50 49 47 46 44 42 43 42 44 46 49 49 51 50 49 48 48 48 48 48 47 47 48
37 28 30 35 50 38 34 30 36 40 41 39 43 46 40 37 36 35 34 35 32 29 32 39 49 54 53 53 53 53 52 51 52 49 49 49 50 52 54 54 53 53 53 52 52 53 53 53 54
42 37 34 35 49 37 30 27 32 38 39 42 44 45 45 41 39 38 35 33 35 37 37 37 39 43 47 50 55 59 58 57 56 56 56 56 57 58 58 59 60 61 60 60 60 60 60 60 60
45 42 41 45 47 37 30 26 32 40 43 48 47 47 44 46 46 44 43 41 37 35 37 38 40 43 45 45 48 50 56 61 62 60 60 61 62 61 61 61 63 64 66 66 65 65 65 65 65
47 49 47 45 50 44 35 28 31 36 42 44 51 52 52 50 51 52 49 47 46 41 40 42 43 42 43 45 47 48 49 51 55 61 64 65 64 63 64 66 67 66 66 66 64 64 62 61 61
58 57 54 49 53 51 46 28 29 37 42 44 46 51 53 53 53 52 51 50 49 51 47 45 46 49 51 49 50 50 49 48 47 49 53 57 58 61 64 64 63 60 59 58 58 59 61 61 63
54 69 56 53 49 43 43 28 29 39 50 53 48 46 52 56 57 58 59 56 54 52 53 58 54 51 51 53 56 57 58 57 56 53 52 54 55 58 59 60 60 60 61 61 60 60 61 63 62
72 79 67 70 58 46 41 47 46 50 44 52 55 56 57 59 63 60 63 61 62 62 60 57 59 58 58 58 58 58 61 64 65 62 62 61 60 61 62 62 62 63 64 63 64 63 64 64 63
78 80 82 73 72 67 58 60 42 49 51 50 53 56 60 62 68 71 71 72 72 73 68 65 60 63 60 60 60 60 63 65 66 69 68 65 65 67 67 68 67 68 69 69 68 66 63 65 67
91 91 84 85 83 78 85 80 64 67 63 67 72 70 71 73 74 69 75 80 77 82 81 76 77 69 73 63 62 63 66 66 63 64 69 74 72 71 71 72 73 72 72 71 71 71 69 70 73
93 95 98 100 100 96 97 96 72 76 78 77 79 84 91 101 95 81 80 77 82 82 80 86 88 85 82 86 81 75 82 76 80 76 78 79 78 75 78 80 79 78 80 81 81 80 80 79 82
100 100 101 106 107 107 100 100 99 97 84 88 97 97 106 101 96 102 90 89 89 85 88 96 87 92 92 91 91 92 96 87 88 87 87 86 85 84 80 78 86 83 82 82 84 83 84 85 88
105 107 105 110 118 116 118 107 102 100 93 93 99 103 106 108 111 114 112 101 102 95 96 90 97 94 92 94 101 102 100 97 87 92 89 99 94 88 90 94 94 93 95 88 86 89 92 94 96
115 111 116 124 118 128 126 118 96 107 96 105 106 113 112 110 110 117 122 121 113 104 99 98 98 104 102 105 100 102 105 104 101 100 100 102 101 100 100 98 99 99 100 102 101 102 101 100 102
124 124 118 130 131 131 136 140 115 110 105 113 113 116 121 122 116 124 119 127 125 115 110 110 112 111 113 117 112 104 113 110 107 110 111 108 109 105 105 100 99 104 107 109 110 109 110 109 106

GFSSGP_250_spd_015.txt.gz
Wind_Speed
23 24 24 24 23 22 22 22 21 21 21 17 15 14 12 10 12 10 8 7 2 6 8 9 17 23 26 28 32 36 42 50 57 62 60 61 61 61 60 59 60 58 55 55 54 54 55 57 55
26 26 25 25 25 24 24 23 22 21 19 18 15 16 12 10 9 8 8 11 9 2 4 7 10 13 21 24 26 31 37 42 49 56 62 63 63 62 63 62 61 61 58 58 55 55 53 52 52
26 27 28 28 27 25 25 25 24 23 22 19 16 16 15 13 12 9 10 10 11 12 5 4 4 5 10 16 23 25 30 36 39 45 51 57 63 64 62 62 59 61 61 61 60 59 58 58 56
26 23 25 26 27 27 27 27 27 26 25 25 20 19 16 16 14 15 12 10 13 12 13 8 5 5 6 10 12 18 22 27 35 37 40 47 52 55 59 61 62 57 55 58 62 63 64 62 61
29 27 26 26 25 25 28 28 28 27 27 25 26 21 19 16 17 15 15 14 14 12 13 12 10 8 7 8 11 13 16 20 24 28 33 37 42 47 53 56 59 58 55 57 57 59 62 63 62
29 30 26 27 29 26 26 28 29 28 28 29 27 28 24 19 19 19 17 15 16 15 15 14 14 12 8 6 8 10 12 15 18 23 25 28 31 35 42 47 52 55 58 59 59 59 57 58 59
27 28 29 28 30 29 27 26 26 28 29 32 30 29 30 28 20 20 21 20 18 18 17 17 18 17 15 13 11 10 11 12 15 17 19 21 26 29 34 35 41 48 49 56 55 61 61 60 60
26 27 26 25 26 25 28 28 27 27 23 26 28 33 31 30 28 23 21 22 23 21 21 21 20 19 18 18 18 16 15 13 15 17 18 21 23 23 26 29 33 36 39 44 52 55 57 64 68
22 23 20 17 20 20 22 21 18 22 24 24 21 23 27 28 31 30 27 24 24 25 25 24 24 23 23 23 22 21 22 21 20 21 21 22 23 23 24 26 28 28 30 33 37 42 45 46 46
19 22 17 13 11 16 17 18 21 25 22 21 22 18 20 23 26 31 33 32 27 27 27 27 28 27 27 28 28 28 27 27 27 26 27 25 24 24 25 24 24 25 26 28 31 32 34 33 32
22 22 19 16 14 17 18 21 26 26 21 20 28 23 21 19 21 24 34 37 36 34 28 26 28 30 30 29 31 30 31 31 32 32 31 31 28 27 28 27 27 27 26 27 28 28 26 28 29
24 27 26 24 20 17 22 27 32 26 22 24 27 27 25 24 18 20 23 28 36 39 34 32 29 28 28 32 35 33 33 33 32 35 36 34 33 33 32 31 31 32 30 29 29 30 31 33 33
23 27 27 27 27 21 20 23 35 30 25 27 32 30 29 25 21 21 22 23 25 31 37 37 35 34 31 31 31 33 36 37 35 35 38 38 37 37 38 37 34 34 35 34 34 35 36 37 38
25 24 26 27 22 23 30 27 36 37 30 33 36 38 35 32 26 26 23 23 23 25 28 35 41 41 40 38 34 32 32 32 33 37 38 39 42 43 42 42 43 41 42 43 41 41 43 44 44
27 24 29 33 26 21 23 27 32 34 29 31 34 38 37 34 31 29 29 24 23 25 23 25 31 40 46 45 43 40 38 35 35 36 35 37 40 43 45 47 47 48 48 47 48 47 46 45 46
32 26 29 42 39 24 19 21 33 34 32 32 35 37 36 34 32 34 31 28 30 27 26 27 27 29 33 40 47 48 46 44 44 42 41 41 39 38 38 42 46 49 52 51 50 50 49 49 47
36 30 34 38 49 36 23 21 31 36 34 35 37 37 36 35 34 34 32 29 27 29 32 32 31 32 33 32 34 39 45 49 51 50 49 48 47 45 44 44 45 47 48 50 52 53 54 54 52
37 36 36 36 49 42 31 27 32 36 37 38 41 42 42 41 41 39 36 33 31 32 31 33 33 33 33 34 37 37 37 38 43 46 50 55 54 53 52 52 51 53 54 55 55 57 59 58 58
36 35 33 35 35 28 34 34 35 37 41 45 44 43 43 43 47 43 45 42 38 36 35 36 37 35 34 34 36 38 40 40 43 44 45 45 50 57 59 60 59 59 60 60 62 62 62 62 62
40 40 40 37 37 36 37 34 37 43 48 48 50 49 44 48 50 48 45 47 45 39 37 36 35 37 37 38 40 41 43 43 43 44 45 46 47 47 49 55 60 64 65 66 67 66 66 66 66
58 55 48 41 49 48 28 24 27 38 46 55 50 46 48 48 56 55 52 45 44 52 49 45 42 43 42 41 42 44 46 48 48 49 49 48 49 50 50 50 51 53 56 59 62 65 66 65 64
61 70 66 70 57 43 49 18 31 39 44 51 54 52 53 57 57 59 59 60 58 54 52 55 56 54 48 45 45 43 47 50 53 54 54 50 49 54 57 57 56 56 58 59 59 61 63 63 63
73 72 70 64 67 53 46 51 34 34 40 44 55 65 67 66 66 63 63 59 59 59 57 50 55 60 58 59 54 48 47 51 51 50 54 56 55 56 58 63 65 63 62 64 63 63 64 65 67
79 74 80 82 81 63 62 65 37 51 55 61 69 69 68 76 73 72 70 70 70 72 68 70 72 58 64 61 60 63 61 61 58 61 60 55 56 59 62 66 67 66 64 65 67 71 69 69 69
86 86 91 80 83 80 76 70 60 70 67 71 77 79 78 82 80 78 84 82 80 76 79 79 80 76 77 67 65 62 68 64 64 60 66 68 65 62 68 65 66 66 71 72 71 72 75 74 74
88 95 96 100 95 88 92 85 76 83 83 85 88 88 88 97 101 94 89 80 89 92 84 85 84 86 86 86 77 74 70 71 76 75 71 74 73 76 73 75 73 79 81 80 82 79 78 81 81
92 95 101 105 107 111 101 95 82 88 98 100 101 99 105 108 111 103 98 103 100 97 93 88 90 93 90 90 93 90 88 77 83 85 85 82 81 84 84 83 86 84 86 91 86 88 87 85 85
102 104 108 109 119 125 118 108 100 95 101 107 114 110 106 106 108 112 106 106 99 98 103 98 94 100 100 98 100 104 104 100 96 86 92 91 90 92 94 88 92 98 98 95 95 94 92 91 91
119 122 121 126 129 132 130 124 105 109 109 110 113 117 113 107 111 113 111 112 110 104 104 103 107 98 101 109 105 106 110 110 104 95 87 95 97 98 101 106 100 103 106 107 103 99 101 100 96
127 131 126 129 129 129 134 137 114 117 112 115 110 115 117 114 111 112 115 114 111 107 111 113 105 114 106 109 113 115 107 112 109 106 106 103 103 104 98 107 115 109 106 114 115 109 107 107 107

GFSSGP_250_spd_021.txt.gz
Wind_Speed
24 24 24 22 22 21 21 21 17 13 9 8 10 10 7 6 5 2 8 13 19 21 23 25 29 33 37 39 43 48 53 57 59 63 64 64 65 64 64 61 59 60 59 59 58 56 54 56 56
21 20 20 21 21 21 20 18 19 17 14 12 9 10 10 8 6 4 3 6 8 17 18 22 25 29 33 36 39 43 46 51 56 60 62 65 66 65 67 64 63 64 61 61 61 60 57 58 57
22 20 19 21 21 22 22 21 18 17 17 15 15 12 11 11 9 8 6 5 4 6 14 19 21 23 25 32 37 40 42 45 48 52 58 62 64 67 69 66 67 66 64 64 64 64 60 62 60
20 20 20 20 20 22 22 22 23 20 17 18 17 16 15 13 12 10 10 9 6 5 4 10 16 19 20 25 30 34 38 40 43 46 50 55 60 64 66 68 68 69 67 67 67 66 66 65 63
20 20 20 20 18 17 17 17 16 17 17 16 19 19 16 16 15 14 13 12 10 8 6 5 9 10 13 17 20 25 32 37 40 42 45 48 52 56 61 65 65 66 64 64 66 69 69 69 66
19 19 19 20 17 16 15 14 13 13 14 13 13 17 17 16 18 17 16 15 13 12 10 10 8 9 9 9 13 15 20 25 30 35 37 41 44 47 51 56 62 66 66 65 64 64 67 68 67
18 17 15 16 16 16 14 14 12 11 10 12 8 13 15 14 13 18 19 18 17 15 14 13 13 12 9 9 9 9 10 12 17 24 27 30 33 36 42 44 47 53 59 63 67 67 66 64 64
18 16 12 15 17 15 14 13 12 12 9 9 17 14 12 12 13 14 19 20 20 18 17 16 16 17 16 16 13 12 12 11 10 11 13 15 20 26 30 33 35 38 38 42 48 55 59 60 60
19 16 14 15 17 17 14 14 18 13 8 15 16 18 18 16 11 14 15 17 20 21 20 20 20 19 19 21 21 19 17 15 14 14 14 14 13 16 18 22 25 28 30 33 35 38 41 44 46
21 17 13 14 16 18 17 19 22 23 13 19 19 21 19 18 17 15 15 16 15 17 20 23 23 24 22 22 22 25 23 22 20 18 18 19 18 17 17 17 19 21 24 26 27 28 30 32 35
27 22 18 15 15 18 17 21 27 31 16 19 25 24 25 23 19 19 18 17 18 17 15 15 19 26 28 27 26 25 27 28 28 26 25 25 25 23 22 21 21 21 21 21 23 25 26 27 29
27 27 21 18 15 15 17 23 27 28 17 22 32 32 32 30 27 20 20 20 20 19 23 23 20 19 27 32 30 28 28 29 31 32 32 30 29 29 30 29 27 26 26 25 24 25 24 25 27
27 29 28 24 21 17 18 25 27 36 22 26 28 32 35 33 28 23 19 19 19 19 22 27 26 27 25 28 33 33 31 31 30 31 33 34 35 35 33 33 33 31 31 30 30 28 28 29 27
27 29 30 30 27 25 20 29 24 40 32 33 33 35 36 34 33 28 22 22 23 23 25 31 31 32 32 28 28 35 36 36 34 33 34 34 35 37 38 37 37 36 36 36 35 35 35 35 34
31 28 33 37 33 32 24 31 34 35 34 37 40 38 35 33 34 31 27 24 25 27 29 33 34 35 35 34 31 30 32 36 40 41 42 40 38 38 37 36 38 39 39 40 41 42 42 41 41
36 32 35 42 40 32 29 29 39 38 39 41 45 46 39 37 32 32 37 36 31 29 28 29 32 35 36 34 34 34 33 34 34 36 41 44 44 42 40 39 39 39 41 43 44 46 46 48 48
38 34 36 38 47 42 36 30 38 45 45 44 47 43 38 37 34 35 35 39 40 39 36 34 34 34 34 36 34 34 36 39 39 38 39 40 43 47 48 48 46 44 44 44 44 46 47 49 50
39 38 37 39 48 46 36 32 34 45 45 42 41 40 39 39 39 36 35 38 40 42 44 40 37 37 37 37 38 37 37 38 39 41 43 42 41 41 44 48 50 51 51 51 50 49 48 50 52
44 39 37 41 46 41 38 33 34 35 41 47 48 47 48 47 44 40 37 43 44 44 46 48 42 38 38 39 41 40 41 40 41 42 43 43 43 45 42 41 40 42 46 49 54 58 60 57 57
48 44 47 46 47 44 44 42 48 44 44 48 53 53 56 56 49 47 46 44 43 48 50 50 49 42 40 39 39 38 40 44 46 46 48 49 48 48 47 46 46 47 48 47 48 49 50 54 62
53 52 53 55 51 49 47 46 50 54 53 56 59 57 57 58 57 58 57 52 51 49 48 50 52 45 43 41 44 45 48 50 50 53 54 56 55 54 53 54 53 53 53 53 53 53 54 53 52
61 60 52 49 49 53 53 51 53 57 61 60 59 61 64 63 63 61 63 59 53 50 50 53 54 53 53 52 50 52 51 54 51 53 55 57 59 59 58 58 55 55 60 59 60 58 58 58 59
60 60 60 59 60 54 50 52 54 57 59 59 58 63 67 69 70 77 69 67 71 68 66 59 56 56 57 58 63 66 67 62 65 63 63 62 61 63 62 65 65 64 64 65 65 65 66 63 63
77 73 78 70 68 60 68 68 56 62 68 65 74 75 76 73 78 76 78 80 78 74 75 76 73 67 71 75 73 71 74 71 72 69 71 71 70 69 72 69 69 71 71 72 72 73 67 67 70
92 95 89 85 87 78 85 78 76 79 81 80 81 84 86 89 85 86 89 88 84 84 81 88 84 84 85 85 85 86 82 81 80 81 82 84 77 78 75 77 75 74 75 75 78 78 76 74 73
94 97 102 103 95 95 96 94 85 89 88 89 94 92 93 96 97 98 100 97 95 93 92 91 90 92 92 93 96 96 94 91 90 88 89 88 88 83 83 78 83 79 83 83 82 77 78 78 81
102 103 106 113 109 110 97 99 98 101 99 97 102 101 101 102 105 102 105 105 107 107 101 100 99 99 100 99 97 101 103 100 98 98 97 93 94 96 93 93 88 88 88 92 90 94 92 90 84
112 111 114 114 119 117 114 108 110 107 108 110 106 109 113 111 108 110 113 113 114 115 113 111 109 107 108 107 106 107 107 108 108 109 108 105 103 104 105 104 102 101 97 94 97 98 100 99 100
126 123 122 122 122 121 121 117 114 118 117 116 119 114 118 121 121 118 117 120 122 122 123 122 121 120 119 119 116 115 114 116 114 115 115 116 115 115 116 115 112 113 110 110 108 105 104 105 106
116 114 118 122 122 125 129 129 123 122 125 119 127 134 123 126 131 131 129 126 128 131 129 130 130 129 134 131 130 129 126 123 122 125 124 121 120 122 120 124 125 123 121 120 117 114 109 114 113

GFSSGP_250_spd_024.txt.gz
Wind_Speed
21 21 23 22 19 18 18 16 12 10 10 9 8 6 1 2 1 5 9 12 17 20 21 21 22 27 31 35 40 48 53 55 57 60 60 61 62 63 64 63 62 64 62 60 58 54 55 52 53
19 19 20 21 22 20 19 16 14 11 11 11 10 9 7 5 3 4 7 10 9 13 18 20 22 24 27 31 36 41 47 53 57 58 60 62 62 63 64 65 64 62 61 63 63 60 59 59 57
17 16 16 16 18 20 19 16 13 12 10 12 13 13 11 10 7 5 7 7 7 9 12 19 21 22 24 30 34 38 41 45 51 56 61 62 64 65 65 65 65 66 63 63 64 63 62 62 62
18 15 14 13 13 14 17 16 13 10 8 10 13 13 15 13 13 11 9 7 8 7 9 11 16 20 21 23 27 35 41 43 45 49 54 60 63 64 67 68 68 69 66 66 68 65 66 64 64
17 15 13 13 12 12 12 13 13 10 8 8 9 10 13 15 17 16 14 12 10 10 10 10 12 13 16 20 22 26 31 37 43 45 48 51 56 60 65 67 69 71 70 69 70 69 67 67 66
16 14 12 12 10 11 10 11 11 10 9 7 6 8 6 8 11 15 18 17 14 12 11 12 12 13 13 14 17 20 23 27 34 40 42 46 50 53 57 61 66 68 68 68 70 72 71 71 69
15 14 9 13 10 11 10 7 9 9 9 11 7 7 6 4 6 10 13 17 21 16 14 13 13 15 14 14 15 17 19 19 23 28 35 40 43 45 49 52 56 60 61 65 66 67 67 67 66
15 13 7 12 12 13 12 14 5 6 8 12 15 13 12 11 10 9 10 11 13 20 21 17 16 15 16 17 17 17 17 17 16 17 23 28 33 34 37 41 46 51 52 54 57 61 64 66 66
18 15 11 11 11 14 16 14 19 11 5 14 16 16 15 14 12 11 11 12 11 12 16 21 21 21 19 18 19 19 19 19 19 19 18 20 21 22 25 29 34 37 40 42 45 46 48 51 55
20 18 17 13 14 16 15 17 21 23 8 12 19 19 16 14 13 11 13 13 14 15 13 15 22 26 26 25 23 23 23 24 23 21 22 23 23 23 22 23 23 25 27 31 33 36 38 41 44
25 26 21 16 18 19 18 18 23 25 7 9 22 25 26 21 12 12 15 16 17 17 18 19 17 19 26 30 30 28 27 27 28 28 27 27 26 26 25 25 25 24 24 24 26 27 29 31 33
27 29 27 25 20 20 23 24 24 31 20 18 23 24 30 28 21 15 11 17 19 21 21 24 25 23 22 23 27 32 34 31 31 30 31 31 30 28 26 28 27 27 27 28 27 27 26 27 27
30 31 31 30 27 22 30 31 25 37 30 27 26 29 28 29 28 23 19 19 24 23 23 27 30 27 28 28 26 26 31 38 37 35 33 31 32 34 34 34 33 32 31 31 30 31 31 29 29
32 30 32 33 32 29 30 36 32 38 35 36 34 34 30 29 27 29 29 27 22 26 29 29 34 33 34 33 32 31 30 30 40 40 38 36 35 37 37 38 38 39 37 36 34 36 35 34 33
33 31 36 39 35 32 32 35 39 39 42 41 42 41 38 34 33 30 33 36 32 29 28 30 32 36 38 38 37 35 35 32 30 41 45 43 42 42 41 40 39 40 40 41 41 40 40 40 40
35 32 31 39 37 33 27 30 45 43 43 43 48 48 46 44 37 29 36 40 38 36 35 34 32 35 36 36 36 36 36 36 35 33 34 40 44 49 48 46 45 43 43 42 42 43 44 43 45
39 36 37 37 41 43 37 28 40 52 47 49 52 51 47 45 38 34 36 36 40 41 42 41 40 36 37 42 41 39 37 37 38 38 38 37 38 37 41 44 51 51 49 46 46 45 44 45 46
42 44 41 40 40 42 43 39 40 47 53 51 52 53 48 38 35 40 39 37 38 39 41 45 46 46 43 40 42 45 45 41 39 39 41 43 42 41 41 40 41 44 52 54 53 51 49 49 48
49 50 49 44 50 48 45 43 41 44 48 52 52 49 44 43 50 47 46 47 46 46 49 47 48 50 51 51 48 46 46 47 43 42 43 42 44 45 44 44 44 45 45 44 47 51 56 59 58
54 49 50 51 53 50 47 45 50 51 51 54 49 52 58 58 56 54 52 53 53 52 50 50 50 51 55 56 56 53 54 51 50 48 45 46 46 47 47 46 48 49 49 49 50 51 52 53 56
56 54 54 54 54 52 52 48 51 54 54 54 49 60 63 62 64 63 62 62 59 55 51 55 56 54 52 54 52 59 56 52 49 49 51 51 52 52 53 53 54 54 54 55 54 56 56 56 57
61 61 58 53 49 45 49 49 52 55 58 56 58 61 62 65 69 70 68 67 64 63 60 62 57 64 57 49 58 52 58 60 55 53 56 54 55 56 56 57 61 61 63 63 62 60 62 61 62
54 58 61 65 63 59 56 51 51 57 57 59 64 64 64 66 64 66 69 71 70 74 67 67 70 71 65 67 62 63 54 60 67 66 67 65 68 70 65 66 66 67 66 68 71 70 65 63 65
65 67 67 69 70 69 73 66 58 66 74 79 67 71 75 72 72 77 75 78 80 78 81 85 81 79 77 78 78 73 74 68 71 72 75 75 74 70 73 73 72 63 66 73 71 71 72 74 71
79 79 76 77 81 74 79 79 79 85 86 87 89 87 83 88 94 82 88 90 88 88 86 86 90 90 90 90 89 83 82 84 82 81 81 83 87 84 83 82 84 80 81 77 80 83 80 80 80
83 87 92 91 88 90 92 91 91 100 103 100 99 100 108 111 103 105 99 101 100 94 96 95 95 97 97 99 97 95 95 94 96 94 92 92 92 93 93 92 91 90 86 85 88 85 85 84 83
90 96 102 106 103 107 98 103 106 108 110 113 111 108 114 110 109 116 115 112 109 108 105 105 105 106 107 106 108 106 105 105 106 106 105 103 101 101 102 101 100 100 98 97 95 91 93 94 91
111 110 113 116 117 118 117 116 112 116 122 117 113 118 117 116 115 113 117 115 115 117 116 115 116 115 116 116 114 114 115 115 115 113 114 113 114 112 110 111 110 109 108 107 102 102 97 101 102
119 117 120 125 129 134 137 127 121 117 116 113 115 116 113 114 120 120 118 123 126 125 126 124 123 124 126 124 125 124 124 124 123 125 125 123 123 122 123 122 122 121 118 116 113 111 109 104 106
128 128 131 131 131 133 135 132 122 117 117 117 115 116 119 119 117 122 126 127 130 131 131 133 129 135 132 136 141 129 135 137 134 132 133 134 135 132 131 129 130 129 127 125 124 120 118 117 114

GFSSGP_250_spd_027.txt.gz
Wind_Speed
17 18 17 16 14 14 13 12 9 9 11 12 10 9 10 8 6 8 10 11 12 12 12 15 17 23 33 39 43 49 52 55 60 61 60 61 64 64 62 62 62 60 60 60 61 60 60 60 59
15 15 15 16 14 13 14 14 13 10 10 13 14 12 10 12 10 10 11 12 11 12 12 14 16 18 22 30 38 42 49 54 56 58 61 61 62 66 67 65 65 66 63 61 61 61 61 59 59
13 11 11 13 15 15 13 13 11 11 10 13 17 15 12 10 14 12 11 15 12 14 14 15 16 18 19 23 27 35 41 45 53 58 59 60 62 62 64 66 67 69 68 68 65 65 64 63 64
14 8 9 10 11 12 13 12 11 8 9 10 10 13 16 14 12 12 14 13 15 15 15 15 16 17 19 21 23 28 34 39 45 51 56 60 62 63 65 65 66 68 69 70 70 69 67 67 67
15 11 8 9 8 8 10 10 12 11 8 7 7 4 7 11 14 15 14 14 14 16 15 15 16 17 18 19 21 24 27 33 40 45 49 55 60 63 64 66 68 68 69 70 71 70 70 70 68
15 11 8 7 8 9 8 8 6 7 9 7 5 6 7 7 10 11 13 16 15 16 17 17 16 17 17 18 19 21 24 27 31 36 43 48 53 58 63 66 68 69 70 70 72 72 71 71 71
15 14 7 10 9 12 6 7 5 4 5 11 4 6 4 8 7 10 9 10 14 17 18 19 20 20 20 20 20 21 22 25 27 30 34 39 45 50 53 57 62 66 70 72 73 73 73 73 74
17 16 9 12 11 14 13 10 5 5 4 11 13 10 9 8 6 6 8 9 10 12 17 20 21 20 23 22 22 23 22 23 25 27 29 31 35 42 46 49 52 56 60 64 69 72 73 73 74
19 18 14 14 13 14 17 13 15 7 7 16 15 14 13 7 8 8 8 9 11 12 11 16 21 24 25 24 27 27 26 26 26 26 26 29 32 33 36 41 45 49 51 54 57 59 62 63 65
23 22 19 16 17 15 17 18 17 16 2 11 21 19 12 11 10 11 12 15 17 17 16 16 16 20 27 28 28 28 30 30 29 29 30 28 28 30 32 32 32 36 40 43 45 47 49 51 52
24 24 24 20 22 19 18 20 20 25 6 12 21 23 23 20 10 10 13 18 20 23 23 24 21 22 21 23 27 29 30 29 30 32 32 33 33 31 32 31 31 33 34 35 37 39 40 43 45
26 26 29 25 25 22 24 23 24 26 27 20 25 30 26 20 23 21 19 17 21 24 26 27 28 26 25 25 25 23 24 30 33 34 35 36 37 36 35 35 35 35 35 35 35 36 36 37 38
29 30 31 31 25 23 26 28 29 30 32 32 32 33 31 27 22 23 26 27 27 26 29 31 32 33 30 31 30 29 29 29 29 33 39 39 37 39 39 38 38 38 38 39 38 37 37 38 37
31 33 32 32 28 28 27 29 26 32 35 37 39 39 36 34 29 31 33 33 36 34 29 29 32 32 37 36 34 33 34 33 34 35 35 40 41 40 39 40 41 42 41 42 39 39 39 40 40
33 33 35 34 31 30 26 32 30 29 38 40 44 43 42 37 36 38 38 39 39 38 40 35 33 34 34 35 37 35 36 37 38 37 37 37 40 44 43 42 43 42 42 43 43 44 44 43 43
36 33 36 38 35 31 30 30 41 38 36 42 43 43 41 41 43 45 46 47 45 41 44 46 41 37 37 38 39 39 39 38 37 38 39 39 39 41 47 49 49 49 48 47 47 45 46 46 46
40 39 42 43 43 40 40 36 39 49 44 46 46 45 44 47 48 48 47 46 46 45 44 46 47 47 45 44 44 44 44 42 40 40 41 41 43 43 43 43 44 47 52 55 54 52 49 47 47
45 46 45 46 47 46 44 45 40 40 48 54 49 48 51 52 49 50 48 43 42 44 44 43 42 44 47 50 51 51 51 50 48 45 45 46 46 46 47 47 48 47 47 48 48 52 57 54 51
47 48 47 51 51 48 50 49 51 49 53 50 48 51 53 54 53 51 52 50 48 50 49 50 49 49 50 52 54 55 55 57 57 54 52 50 50 52 52 49 50 50 49 50 50 51 52 57 62
52 49 49 51 55 56 56 49 53 56 53 52 52 55 59 62 59 57 57 57 56 59 59 57 55 56 56 54 58 56 56 55 59 60 60 58 55 56 57 56 54 54 52 50 50 50 53 54 56
58 57 56 57 57 56 57 50 53 59 52 52 56 60 61 61 61 59 60 61 63 64 65 66 66 66 64 62 58 59 61 61 58 57 56 58 62 62 60 61 59 58 58 57 56 55 53 53 55
55 57 54 53 57 61 57 53 57 57 52 55 58 57 60 61 63 62 61 64 64 67 67 68 71 74 72 72 67 66 65 62 60 62 59 60 59 63 61 63 63 61 62 63 62 62 61 61 60
55 58 55 61 56 47 55 51 56 61 66 64 65 57 60 64 68 70 70 74 68 74 69 71 71 72 74 75 74 72 72 73 71 66 72 69 66 67 70 69 66 66 64 64 63 66 63 64 68
63 61 60 59 58 58 62 55 59 62 67 71 69 72 72 72 77 78 80 84 85 84 84 84 82 83 84 83 84 84 86 84 81 81 77 81 80 76 73 74 76 74 75 74 74 72 73 70 68
65 63 65 67 67 62 67 69 71 71 74 75 75 79 83 87 88 87 92 94 100 100 95 96 98 97 96 96 94 94 93 93 92 90 89 86 86 87 85 83 83 85 83 82 83 83 80 78 77
71 73 74 76 72 70 78 77 83 86 89 90 92 98 100 100 101 103 106 109 115 114 113 111 109 110 106 105 106 102 103 102 101 102 100 97 95 95 95 96 95 94 92 91 92 91 92 90 88
80 81 83 87 87 87 87 92 101 107 106 108 108 107 107 113 119 113 116 120 115 113 117 116 115 115 115 114 112 113 113 113 112 109 107 108 109 106 103 104 104 104 104 104 101 99 99 101 98
89 90 91 94 99 102 98 98 110 122 119 118 119 119 120 124 128 128 125 125 118 120 118 116 120 117 121 120 119 121 122 121 121 120 119 115 113 115 115 115 113 114 114 113 112 111 110 107 107
93 97 101 99 102 110 115 110 117 125 126 128 122 123 127 127 127 124 125 121 124 121 126 125 125 123 124 128 124 126 133 130 132 129 129 129 127 122 122 125 122 123 124 125 125 122 120 117 117
100 100 100 106 108 122 129 122 128 127 127 124 124 126 123 120 119 118 116 116 117 116 115 120 122 122 124 122 125 134 137 141 137 137 138 137 136 136 132 129 128 131 131 132 134 131 129 128 127

GFSSGP_250_spd_033.txt.gz
Wind_Speed
15 15 13 14 13 12 11 9 8 10 11 15 17 15 15 14 13 10 8 12 18 23 27 31 36 40 47 51 52 54 54 55 60 65 68 67 66 64 63 63 64 63 61 60 59 58 58 58 58
14 13 13 15 14 12 12 10 7 6 8 10 13 17 15 15 15 16 16 13 10 15 21 26 30 36 40 47 52 52 53 55 58 62 67 68 67 68 67 67 67 66 65 64 64 63 63 62 62
13 13 11 14 13 12 11 11 12 8 4 6 10 14 19 18 17 17 17 17 16 13 14 19 25 30 34 40 46 51 55 55 57 60 63 67 65 67 69 69 69 70 70 68 67 67 65 65 65
15 13 12 13 14 12 11 9 10 10 8 5 4 9 18 20 19 17 17 18 17 19 17 16 17 22 28 34 39 45 50 56 60 60 62 64 65 68 68 71 73 74 74 72 72 72 71 70 70
15 14 14 16 13 12 11 10 11 10 11 5 4 5 6 13 19 18 19 20 21 21 22 22 21 21 22 24 33 37 42 48 54 60 66 67 66 68 70 72 74 75 77 77 76 75 74 75 74
17 13 14 20 16 10 13 11 10 11 9 9 3 6 5 6 7 12 16 19 22 24 25 26 26 25 23 24 25 29 36 40 45 51 56 61 66 70 71 71 73 76 73 75 77 78 78 77 76
16 16 13 20 22 15 12 14 10 13 11 10 6 6 8 7 9 11 13 15 18 20 24 28 29 29 29 27 26 27 28 33 38 42 47 52 56 59 64 69 72 73 76 76 75 76 78 77 76
19 16 15 18 21 21 18 14 13 13 14 15 11 6 8 10 13 15 16 17 19 20 21 23 29 31 32 32 31 30 29 29 30 33 38 42 45 51 56 58 60 64 70 75 75 77 78 78 79
20 16 17 17 19 21 22 21 17 13 15 23 15 15 9 11 13 16 18 19 21 22 24 25 25 25 30 34 34 34 33 33 33 33 34 35 37 40 46 49 51 55 58 62 68 74 78 78 78
23 19 20 19 21 21 22 24 24 20 13 20 25 21 19 14 16 16 19 22 24 26 25 25 26 27 25 24 29 35 33 34 35 36 36 36 37 37 39 42 45 47 50 53 56 58 61 66 69
24 24 22 21 23 23 24 26 29 27 19 24 20 18 23 26 27 24 24 25 27 25 26 28 27 26 26 29 28 27 30 37 39 38 40 42 42 41 41 41 41 42 43 45 47 48 51 54 57
26 25 24 22 23 25 28 28 30 30 31 27 29 25 28 30 34 34 33 30 29 31 32 30 29 30 32 30 29 31 32 32 33 35 41 43 45 45 45 46 45 44 44 44 43 45 46 47 49
29 27 26 25 23 28 30 29 31 33 35 34 31 30 33 37 39 39 40 38 35 35 35 37 38 36 36 37 36 34 34 34 36 37 38 39 41 43 45 47 48 49 49 49 48 47 47 47 47
31 31 30 30 28 29 31 33 35 36 35 31 34 32 35 39 38 37 38 41 40 40 41 41 40 41 41 41 41 42 40 40 40 39 40 43 44 45 45 43 45 48 50 51 53 52 51 51 49
32 34 35 36 35 34 36 40 38 38 36 33 32 36 41 40 39 38 38 40 41 41 41 43 44 45 44 44 45 46 46 44 45 45 44 42 43 45 47 49 49 49 49 49 50 55 57 56 56
36 37 40 39 39 38 38 44 43 43 41 39 39 41 43 45 46 45 44 43 44 46 47 46 46 48 48 47 49 50 50 50 49 48 48 47 46 45 46 47 49 50 50 52 51 48 57 58 59
40 39 41 43 41 39 39 43 49 49 46 47 46 46 47 48 50 50 51 51 50 49 49 52 52 52 51 52 51 51 53 54 54 52 50 52 53 52 52 51 50 51 51 53 54 53 51 56 60
43 42 41 44 44 41 42 42 47 50 48 49 50 52 52 52 52 54 54 55 55 55 54 54 55 54 52 51 52 55 56 57 59 58 57 57 57 56 58 58 57 55 54 54 55 56 56 56 57
45 44 44 47 49 46 49 46 50 51 51 52 54 54 55 56 55 55 53 52 53 55 55 55 55 57 58 57 57 58 58 60 61 63 63 64 64 65 65 64 64 63 63 61 59 59 60 61 61
49 49 52 52 53 51 53 54 56 57 57 57 58 60 60 61 60 61 58 57 56 56 56 53 54 57 59 63 62 59 63 66 66 68 70 70 70 72 72 71 69 67 68 68 67 63 62 65 66
56 57 57 57 59 58 59 59 61 62 62 63 64 63 63 64 65 67 66 65 64 62 62 59 60 60 61 62 62 65 66 67 71 76 77 76 77 78 79 79 79 77 74 73 73 72 70 67 69
56 57 56 56 57 60 60 58 58 60 61 63 64 68 71 73 69 66 67 67 68 71 69 69 68 69 69 68 68 70 70 74 75 76 79 80 79 80 81 81 83 86 85 83 81 81 79 77 73
55 57 57 58 58 54 56 57 47 53 59 65 65 67 71 76 78 75 72 67 68 71 73 72 74 71 69 74 75 74 75 78 82 83 83 86 87 88 86 85 89 88 86 90 94 92 89 84 81
62 59 58 59 59 55 59 62 62 66 69 71 73 75 74 77 81 82 81 79 76 77 80 78 78 80 81 87 86 85 86 89 91 91 92 93 96 97 97 99 97 94 94 95 93 98 98 95 91
63 61 57 57 63 61 62 66 62 65 68 69 70 73 73 66 74 78 86 85 89 89 89 89 89 96 96 98 100 102 101 100 103 105 102 103 101 103 105 105 106 105 106 103 104 101 102 101 101
65 65 68 67 66 60 59 58 64 72 72 73 73 72 70 74 77 74 79 85 92 98 98 100 101 105 105 106 113 114 111 110 117 122 120 118 119 117 115 115 117 115 113 113 114 114 110 107 106
70 67 74 74 69 70 67 63 65 68 73 76 79 79 79 78 82 84 85 86 90 93 93 99 105 109 109 115 113 119 123 122 117 123 124 126 129 133 132 133 134 131 129 120 121 123 118 117 114
72 73 73 78 81 78 74 71 75 75 84 83 85 88 88 91 93 95 96 96 99 104 107 107 114 119 118 122 125 118 121 119 123 124 124 128 134 133 143 146 143 142 141 141 134 132 129 125 125
83 73 80 85 82 88 84 71 79 91 97 100 98 100 108 113 115 114 117 120 120 116 116 121 124 122 119 119 118 117 119 124 122 123 125 129 134 136 135 138 147 149 147 152 147 144 143 139 135
81 82 84 87 90 90 94 81 92 101 106 100 109 116 122 126 129 126 127 121 128 129 130 128 125 126 123 124 122 121 120 120 121 122 123 124 125 124 124 126 128 131 134 138 145 152 153 149 146

GFSSGP_250_spd_036.txt.gz
Wind_Speed
16 15 13 15 15 14 11 11 8 8 11 13 13 16 15 12 7 5 5 6 14 20 22 26 31 35 39 41 46 49 53 56 57 59 62 62 64 63 63 63 62 62 61 58 58 57 57 57 56
15 15 15 14 14 14 14 11 8 7 8 10 12 13 15 14 14 12 9 8 8 12 19 24 26 30 35 38 42 45 48 51 55 57 59 60 65 66 66 65 65 65 65 65 63 62 62 61 61
16 16 16 16 13 13 14 15 11 9 7 6 9 11 12 15 15 16 16 15 14 11 11 17 23 26 29 33 38 42 48 50 54 56 57 58 63 67 69 68 67 67 66 66 66 65 64 64 64
17 15 15 18 15 12 10 11 13 11 10 8 6 8 9 13 18 18 18 19 18 18 15 14 17 21 25 29 33 38 42 49 53 55 58 59 60 64 69 71 69 70 69 68 68 67 67 67 68
17 15 15 18 16 15 12 10 11 13 12 8 8 5 7 9 11 17 20 21 22 22 23 21 18 18 19 23 27 33 37 44 48 54 57 57 59 61 65 70 73 72 72 73 73 72 72 71 73
17 17 15 18 16 14 14 13 12 12 12 11 9 9 7 8 9 11 15 19 22 24 24 25 26 25 21 19 23 27 31 37 42 48 51 56 61 62 62 66 69 70 71 72 73 74 77 77 76
18 18 19 20 19 16 12 15 13 13 13 12 9 11 11 10 12 14 16 17 19 19 21 22 25 27 29 29 25 24 26 29 34 40 45 51 56 58 64 68 69 68 70 73 75 77 79 79 80
20 17 19 21 20 19 18 16 16 13 13 16 14 15 13 14 16 17 17 17 19 21 22 22 22 22 23 28 32 31 29 27 29 31 36 42 46 51 57 61 64 68 72 75 76 75 76 78 80
21 18 18 19 18 20 20 20 18 14 15 18 19 23 16 15 15 15 18 18 18 19 21 22 23 24 22 22 24 27 34 34 33 32 33 32 34 38 44 49 53 59 63 66 68 71 74 77 80
21 19 20 20 21 21 22 21 21 17 14 20 21 26 26 22 21 16 18 20 22 22 25 24 24 24 23 23 22 23 26 29 36 37 37 38 38 38 40 40 42 46 50 54 58 62 65 68 69
23 22 21 20 21 22 25 24 23 20 16 22 23 26 26 27 28 29 28 26 26 29 27 27 28 28 28 26 26 25 24 26 28 31 35 42 43 42 43 44 43 43 44 45 46 49 52 55 59
24 23 22 22 22 24 25 25 25 25 24 22 25 27 32 36 36 34 33 34 32 33 36 37 34 33 34 35 34 33 34 31 28 31 34 36 37 40 45 47 48 48 48 48 46 46 47 47 47
29 25 24 23 24 28 28 26 24 24 26 27 28 31 33 33 35 35 35 37 39 37 35 37 40 41 40 38 40 40 40 38 38 36 34 36 39 42 43 42 44 48 51 51 51 51 52 51 50
31 29 27 25 25 28 29 32 30 29 27 28 31 33 34 34 32 33 37 38 38 38 38 37 38 40 42 43 40 41 43 43 43 43 42 42 41 41 42 45 47 46 45 45 48 51 53 54 56
31 33 31 31 29 30 34 34 33 31 30 32 32 34 36 37 38 41 41 41 42 44 44 44 45 44 45 46 46 45 46 47 46 46 46 46 47 46 46 47 47 46 47 49 50 51 52 51 52
34 36 38 37 37 36 38 42 38 35 34 36 35 36 38 40 41 42 44 46 47 48 50 51 49 50 50 50 50 50 51 52 53 52 51 50 50 51 50 50 50 49 48 47 49 52 52 53 54
34 36 39 40 39 38 38 43 44 38 41 42 43 43 43 44 44 43 44 46 49 51 52 53 55 55 56 56 56 57 58 56 55 55 56 56 56 55 55 54 54 53 53 54 53 54 54 55 54
38 40 41 44 40 38 39 41 48 43 45 45 47 48 48 49 50 51 51 51 51 51 53 54 55 56 57 57 57 58 60 60 59 60 61 61 59 60 61 60 60 61 61 61 59 59 58 55 56
41 43 42 45 43 41 43 43 47 48 49 51 53 54 55 55 56 55 54 56 57 58 58 60 60 60 61 61 61 59 58 60 61 61 60 61 64 66 67 67 67 68 68 69 68 68 65 63 61
43 43 47 46 48 48 48 49 49 51 52 55 56 56 56 56 59 60 61 62 62 63 64 65 66 67 67 67 66 67 67 65 66 67 68 65 66 67 71 74 74 75 77 77 77 76 74 73 71
46 47 49 50 51 49 47 49 52 54 56 56 55 56 57 56 60 62 62 64 65 67 70 71 70 71 71 71 72 71 71 70 70 72 74 75 75 74 76 76 79 81 81 82 83 84 83 83 82
50 55 53 54 52 50 50 47 52 57 58 56 58 58 57 59 62 64 67 71 71 70 73 72 73 74 73 74 74 79 80 81 81 81 82 82 84 84 86 86 86 87 88 90 89 88 86 86 88
58 58 57 55 54 52 52 56 53 58 64 66 63 62 65 63 63 65 68 71 73 77 71 71 73 76 77 78 82 81 81 87 89 87 87 87 89 92 96 95 95 95 96 96 99 97 96 93 92
62 59 56 57 57 55 60 60 54 55 59 62 68 71 72 70 70 73 73 74 71 70 73 70 76 77 78 78 79 86 85 87 90 93 96 94 95 101 101 103 105 105 105 107 107 107 108 103 101
61 60 61 59 60 58 61 61 58 61 63 65 69 71 71 73 72 70 73 73 78 80 81 80 79 80 84 81 88 91 96 96 93 102 103 105 108 108 109 112 117 117 115 116 116 115 116 116 114
65 64 63 64 63 66 61 59 63 67 72 74 76 77 76 80 80 79 77 76 79 82 83 83 84 85 86 96 88 95 99 100 103 108 115 116 119 122 127 127 129 124 129 131 127 125 126 124 124
67 68 75 74 74 72 70 63 63 71 76 80 82 84 85 82 82 80 77 81 84 81 87 87 85 90 94 99 100 104 103 108 107 112 111 114 123 127 131 137 138 137 131 136 134 135 136 136 136
74 77 77 81 81 76 76 77 80 82 78 79 86 84 83 82 83 80 83 87 83 87 92 97 102 105 109 110 111 115 116 114 110 112 116 118 123 128 126 128 128 137 148 146 139 144 145 143 141
79 78 80 85 86 87 84 79 83 94 97 101 97 91 86 87 88 89 94 98 101 102 110 118 121 122 125 127 131 122 116 111 110 113 115 115 120 121 125 123 125 131 136 138 136 144 147 145 147
82 79 78 80 84 90 96 84 86 96 97 99 103 100 93 92 95 100 104 109 113 120 125 127 127 129 135 135 129 120 118 120 118 114 113 112 113 112 111 111 112 114 117 121 124 126 132 136 144

GFSSGP_250_spd_042.txt.gz
Wind_Speed
11 12 11 11 11 9 7 7 6 7 5 5 7 8 6 8 9 10 12 14 15 17 18 19 21 25 31 34 37 40 41 47 51 56 50 52 54 49 48 48 45 45 50 50 55 54 56 56 54
14 15 13 12 12 10 7 5 4 5 5 5 4 7 8 7 8 9 9 10 10 12 14 16 18 19 21 25 30 35 39 42 50 58 56 54 58 56 52 53 50 50 53 51 58 59 57 57 60
13 13 14 12 11 12 7 5 4 4 3 3 5 4 7 8 7 7 7 7 8 8 10 11 13 16 18 19 21 25 31 37 43 52 54 54 56 60 58 58 58 58 59 58 61 62 63 63 63
13 12 13 10 11 12 10 7 5 4 6 4 3 5 6 6 8 7 8 8 7 6 6 9 10 12 13 16 19 21 23 27 32 38 44 51 56 59 61 62 63 64 64 62 61 64 65 67 66
14 13 13 11 8 10 10 8 8 5 5 6 6 5 7 6 6 6 8 6 7 9 11 10 10 11 13 15 15 18 21 24 26 28 32 37 43 48 52 57 59 66 70 68 66 68 67 70 67
15 13 13 12 9 10 8 7 8 7 5 5 6 8 7 8 8 7 6 4 6 5 4 7 8 9 13 16 18 19 19 21 22 25 28 31 34 36 40 45 50 54 59 64 65 66 71 70 73
16 14 13 13 10 8 7 8 9 9 8 7 5 7 8 7 8 6 5 4 1 2 5 6 6 7 10 12 15 17 20 22 23 24 24 26 30 34 37 40 44 47 50 54 58 60 61 65 69
15 13 13 13 12 9 6 7 8 10 10 8 8 6 6 9 9 8 6 7 6 5 5 6 8 8 8 9 12 15 16 18 21 23 25 27 29 30 34 38 41 45 48 52 54 57 61 63 65
15 13 11 12 13 13 8 7 9 11 12 13 11 10 7 7 9 12 12 11 12 14 14 14 12 12 13 13 14 14 16 18 18 20 22 25 28 31 32 33 34 38 44 48 51 55 58 60 63
17 12 11 11 11 13 11 9 9 12 13 16 16 15 13 10 9 11 14 16 18 18 19 21 22 22 20 20 20 19 20 21 22 24 25 25 25 28 30 33 36 37 39 40 42 46 50 54 58
19 16 15 13 12 11 9 9 8 10 10 12 16 19 16 13 12 13 13 16 19 21 22 23 24 25 26 26 24 22 22 23 25 27 29 29 30 30 31 33 34 35 38 41 44 46 47 47 48
22 19 18 15 14 12 10 10 10 12 10 14 15 16 18 21 20 18 17 16 17 20 22 22 23 25 25 25 25 26 26 25 25 26 28 29 31 32 33 36 38 38 38 39 40 43 46 48 49
23 21 20 17 16 14 12 11 13 14 17 18 19 18 18 19 19 22 23 22 21 21 23 26 29 30 30 30 32 33 33 33 34 35 34 34 35 35 35 35 37 40 44 45 45 45 46 47 48
22 21 21 20 18 14 13 12 15 16 18 20 20 19 19 20 22 24 25 26 28 28 27 27 28 29 31 33 34 35 36 38 40 41 42 42 42 43 43 43 43 43 43 46 49 51 51 51 51
22 22 22 22 19 16 14 14 16 17 19 20 20 22 23 24 26 27 28 29 30 31 33 33 33 34 35 35 36 37 38 39 41 43 44 45 46 48 50 52 52 52 53 53 51 52 54 55 55
22 22 23 21 19 18 20 16 19 21 21 22 21 23 25 27 28 30 31 32 34 34 34 36 38 39 40 40 39 41 42 44 45 46 47 48 49 50 51 52 54 56 58 57 60 60 59 58 59
24 27 27 23 21 19 22 21 21 22 23 25 26 28 30 31 32 32 33 34 36 37 39 40 42 43 44 44 45 45 46 46 47 48 49 51 53 55 56 57 59 61 61 63 65 66 65 66 66
29 31 31 26 22 21 22 24 23 23 25 28 30 33 34 34 35 35 35 36 38 41 42 45 48 50 51 50 52 54 54 54 54 55 57 59 61 62 64 64 65 66 67 69 71 72 74 73 71
33 34 34 29 24 22 25 27 26 27 29 32 34 36 38 38 39 38 39 41 44 46 48 49 52 52 50 55 57 59 60 63 64 66 67 67 67 70 71 71 73 75 77 77 77 79 79 80 80
34 34 36 32 24 23 27 30 31 33 34 37 38 40 40 41 41 41 44 48 48 50 52 54 55 57 59 62 64 66 68 71 72 74 73 74 76 74 76 77 79 82 84 86 88 87 86 88 87
36 34 38 35 32 27 29 30 37 38 40 42 43 45 45 45 45 44 46 49 52 53 54 55 57 57 61 65 69 70 68 68 75 75 78 77 77 78 76 75 79 83 88 89 89 94 97 95 95
36 39 38 39 37 34 37 30 42 46 45 48 48 49 49 50 51 50 51 54 53 55 57 58 59 62 65 67 69 70 74 76 78 82 80 81 81 75 81 84 80 77 83 85 91 100 104 103 104
42 44 44 45 45 41 40 45 40 51 52 52 53 53 52 54 53 52 54 55 55 56 60 61 63 65 70 73 77 76 80 80 77 78 80 83 86 91 86 81 79 87 92 92 96 97 99 105 109
52 50 51 51 48 42 48 53 37 53 55 55 56 57 59 60 59 57 59 59 60 60 61 64 65 69 73 76 81 84 85 89 91 89 87 82 81 79 86 86 89 88 97 98 101 106 105 108 112
58 58 57 53 53 50 53 54 42 50 57 59 59 61 64 65 62 62 65 64 64 65 66 70 73 78 82 88 90 90 90 87 90 82 88 90 94 96 92 93 96 100 104 110 111 112 110 115 113
60 61 61 59 54 54 54 50 51 57 58 61 62 63 65 67 68 68 65 68 68 74 76 81 85 87 87 90 90 89 94 90 92 96 94 95 87 93 100 105 109 111 109 115 118 116 112 115 119
56 55 62 60 58 57 55 56 58 60 64 67 69 68 69 72 72 70 72 77 79 78 79 84 87 89 92 94 94 92 95 97 97 98 95 100 106 112 111 114 117 113 115 119 120 120 115 119 117
57 61 63 62 62 62 59 62 63 65 68 70 72 74 76 76 77 77 77 75 78 81 86 85 89 93 90 89 91 93 89 97 99 103 102 107 111 116 123 116 124 122 122 113 112 109 109 107 112
61 61 65 67 66 68 68 66 66 67 69 71 74 76 75 75 76 78 80 80 85 87 91 96 98 94 98 102 100 103 96 99 99 104 111 119 124 122 128 127 118 115 112 110 108 107 108 108 107
67 65 68 69 70 72 71 62 65 69 71 74 77 78 79 79 79 80 84 88 91 95 97 101 103 101 99 98 99 103 106 105 110 118 123 127 131 132 129 121 114 110 109 107 104 103 102 102 102

GFSSGP_250_spd_045.txt.gz
Wind_Speed
12 11 11 11 11 9 10 8 7 6 4 5 4 4 6 11 12 10 9 11 11 14 16 16 18 25 30 32 33 36 44 49 46 44 48 48 47 44 47 47 49 50 46 44 45 50 55 56 54
13 12 10 11 11 8 8 7 7 7 6 4 5 2 2 3 10 10 10 10 11 11 13 14 15 17 22 27 32 36 38 42 50 49 48 46 49 52 49 49 46 46 46 46 45 47 49 52 56
12 12 11 10 9 8 7 8 6 5 6 4 3 4 2 1 1 10 10 10 10 10 9 11 12 14 16 20 24 29 35 39 41 46 50 50 53 53 54 50 56 55 51 52 51 50 49 54 56
12 11 10 9 9 8 4 4 5 5 5 4 3 2 3 5 4 3 7 11 12 11 10 10 10 12 14 16 19 21 26 32 36 40 46 49 53 59 57 58 61 62 59 58 56 57 57 57 59
12 11 9 8 9 9 7 5 3 3 5 4 2 2 4 3 2 4 3 4 7 11 12 12 13 13 13 14 16 18 21 24 28 34 39 44 50 54 61 61 61 64 64 65 64 64 63 64 64
13 12 9 8 7 8 7 7 5 3 3 2 2 1 3 4 4 2 2 2 4 6 8 12 14 16 16 17 16 18 19 21 23 26 31 37 43 49 56 60 63 66 70 68 68 67 65 66 66
14 12 10 10 7 7 7 7 8 7 6 4 4 4 2 4 3 4 4 4 5 5 7 8 8 9 12 15 18 19 20 22 24 26 26 27 30 37 44 47 52 56 57 59 62 64 64 64 68
13 12 12 11 8 6 9 10 8 9 7 7 5 6 7 5 5 6 6 6 7 7 7 7 7 7 8 10 12 15 18 20 20 24 26 28 30 31 32 35 37 41 43 48 52 55 58 60 62
14 13 13 12 9 9 8 11 12 10 10 9 8 7 6 8 10 11 12 12 11 11 11 11 12 14 14 14 14 16 17 19 20 21 21 23 26 28 30 33 35 36 38 40 42 45 47 50 53
18 13 13 14 13 11 9 10 11 12 11 12 11 10 9 9 10 11 13 15 16 17 18 19 18 17 18 20 21 22 22 22 23 24 24 25 27 27 29 30 30 32 35 38 40 41 43 46 48
21 17 16 17 16 15 12 10 9 13 13 15 13 10 10 10 11 12 12 14 16 17 18 20 21 21 21 20 21 23 24 23 25 26 28 28 29 31 32 33 34 33 34 36 37 39 42 45 48
23 21 19 20 19 18 16 15 13 12 13 14 15 14 13 14 14 14 16 17 18 19 20 20 22 23 24 23 22 23 24 25 27 27 27 28 29 30 31 32 34 37 40 41 42 42 44 47 47
26 24 21 20 20 19 18 18 17 15 14 15 15 17 18 16 16 17 16 16 17 19 21 22 24 25 27 29 29 29 29 29 29 30 32 33 34 35 35 36 36 37 39 41 42 44 46 49 52
26 24 22 21 22 20 18 19 20 18 17 17 17 17 18 19 20 22 23 24 25 25 24 24 26 28 29 31 33 35 36 38 38 37 36 36 36 37 38 39 40 41 43 45 46 47 48 49 51
26 24 23 23 23 20 19 21 22 21 20 20 18 16 18 21 23 24 24 26 26 27 28 28 27 27 27 28 31 34 35 36 39 40 41 43 43 44 45 45 45 46 48 49 50 51 53 53 54
26 25 27 28 24 22 19 22 23 23 22 21 22 21 22 22 23 24 26 26 27 26 26 26 27 28 30 31 33 32 33 34 36 37 39 41 42 44 47 48 49 50 51 50 51 53 56 56 58
27 26 32 27 25 24 22 23 24 25 24 24 23 23 24 25 26 27 27 28 28 27 28 29 30 33 36 36 38 40 42 43 44 46 48 49 51 52 54 58 59 60 61 61 60 61 63 65 65
27 33 32 30 29 26 27 27 27 27 25 25 25 25 26 27 28 30 30 30 30 29 31 34 36 40 41 42 42 43 45 46 50 51 53 57 60 63 62 61 60 62 62 65 67 69 69 72 75
34 34 35 37 32 28 29 31 29 27 27 27 28 29 28 30 33 34 35 36 36 36 36 36 38 41 44 46 47 49 51 52 56 58 60 62 63 63 66 71 75 78 73 73 75 75 77 78 79
37 36 37 37 34 30 30 30 31 28 31 29 30 31 31 33 36 39 39 39 40 42 42 42 43 46 49 49 50 51 53 56 59 61 63 64 67 70 72 75 74 74 77 79 81 84 83 82 87
42 38 41 37 34 32 33 30 33 32 35 32 34 35 35 36 38 41 43 44 44 46 48 48 48 51 51 52 54 56 58 61 62 66 71 74 74 76 78 79 84 83 80 81 83 86 89 91 91
45 43 44 41 38 36 33 28 32 38 40 38 39 39 39 39 41 42 45 47 50 52 53 55 53 55 53 55 57 60 65 68 70 70 75 78 81 85 90 87 88 87 91 91 92 92 96 93 98
53 50 51 48 43 40 36 35 36 43 46 48 45 45 45 44 45 46 48 51 54 57 59 58 60 60 59 62 63 68 70 71 74 77 80 83 89 90 90 89 91 92 91 90 91 93 99 103 108
57 57 58 55 49 39 45 45 34 43 54 52 53 52 50 49 50 52 52 54 58 61 62 63 62 62 64 65 68 70 72 76 80 85 88 91 91 91 94 96 96 96 98 96 99 99 109 113 111
55 59 60 56 54 49 51 51 43 48 54 56 56 55 54 54 55 56 58 59 60 60 61 64 67 68 67 69 73 77 80 85 86 90 87 88 92 94 91 88 90 96 103 101 108 116 121 117 119
53 56 58 59 58 55 53 50 48 55 54 55 56 56 57 59 60 61 64 65 66 67 69 71 72 69 72 77 80 82 87 89 93 93 96 98 93 96 100 99 102 107 101 109 116 116 117 121 133
52 50 60 59 57 56 53 53 51 53 57 57 57 60 63 65 67 69 69 69 70 72 73 74 75 76 77 80 84 88 90 96 94 103 101 102 107 103 103 111 107 102 112 119 127 126 121 127 134
54 54 57 58 56 57 52 50 52 56 58 59 60 64 68 70 72 71 70 72 73 75 77 78 77 78 81 86 92 95 97 99 104 108 105 108 108 106 107 108 115 116 121 124 120 130 132 128 126
64 60 63 65 60 59 56 53 57 58 59 61 65 68 72 74 73 73 74 73 72 73 77 82 86 88 92 96 99 101 103 107 110 110 110 110 113 112 117 116 117 122 123 127 127 120 120 125 118
68 67 68 67 66 68 67 58 62 62 64 65 69 72 74 75 74 75 76 77 79 83 83 85 88 92 95 99 101 106 109 112 110 110 118 121 116 118 115 123 127 127 126 117 115 114 115 106 113

GFSSGP_250_spd_048.txt.gz
Wind_Speed
13 11 10 8 8 9 9 9 6 5 5 5 3 4 8 14 12 10 8 8 9 12 15 16 19 25 31 34 36 34 36 36 40 41 43 43 39 37 40 42 43 42 44 53 53 55 55 55 54
12 10 8 8 6 6 6 7 6 4 4 5 4 2 5 7 13 12 10 9 8 9 13 15 17 19 25 30 32 33 35 36 40 41 44 47 46 45 44 50 49 46 47 49 50 54 57 57 58
10 10 8 7 6 5 5 5 5 3 2 2 2 1 2 6 10 16 13 12 10 10 10 14 17 19 22 25 30 34 36 36 39 42 46 49 48 46 49 52 52 50 49 51 52 51 53 51 50
10 11 9 7 7 6 5 6 6 3 1 0 2 3 4 5 5 11 15 13 13 13 11 11 13 16 20 23 25 28 32 36 39 41 50 53 54 53 50 53 55 56 54 53 54 57 55 54 53
11 11 9 8 8 7 6 6 6 5 3 2 3 4 3 5 5 7 11 15 16 16 14 13 12 13 15 17 20 23 25 29 35 40 44 49 55 56 57 57 57 58 58 57 57 59 59 59 62
12 12 11 10 9 10 8 6 6 6 6 6 4 5 6 5 6 7 8 9 11 14 17 16 15 16 17 17 18 19 22 25 28 30 35 42 47 52 57 59 60 60 63 63 66 65 68 69 68
14 12 13 11 10 11 10 9 8 9 8 9 8 7 7 7 6 7 8 7 6 8 9 11 14 17 19 21 22 23 24 25 26 28 30 31 35 40 44 49 51 55 59 62 70 68 70 71 73
16 14 13 13 11 11 12 11 11 11 10 10 10 10 9 8 9 9 9 8 7 7 7 7 8 10 12 15 17 20 24 25 26 29 32 31 32 33 34 38 44 48 53 56 61 66 68 69 72
18 16 14 14 13 12 12 12 13 13 13 11 12 11 11 12 12 11 11 11 11 11 11 11 12 12 14 15 16 17 18 20 21 23 25 27 31 35 38 39 40 41 43 46 47 51 53 56 60
19 18 17 16 16 14 13 13 14 14 15 15 14 13 14 14 14 13 14 14 14 15 16 16 18 18 19 20 21 21 22 23 23 25 25 26 26 30 31 33 35 37 41 43 47 48 49 51 51
23 21 20 20 19 18 16 16 16 16 16 17 16 16 15 16 16 15 15 15 16 17 18 19 19 20 21 22 24 24 24 24 26 24 24 25 28 30 30 30 31 33 34 37 40 42 44 46 47
24 23 22 23 22 22 22 20 18 19 18 19 19 17 16 16 16 17 18 18 18 19 19 19 20 20 22 24 25 25 24 26 28 30 32 32 32 32 32 32 33 35 36 37 37 37 37 39 42
27 26 25 24 24 24 24 25 24 21 21 21 20 19 19 18 17 17 17 18 19 20 21 23 23 24 26 27 28 27 28 28 28 29 32 34 36 38 39 39 39 40 41 42 44 45 44 45 47
28 27 26 26 25 26 25 27 27 24 23 22 21 20 21 21 22 22 21 21 22 23 24 24 25 27 27 27 28 28 30 30 31 32 32 33 34 36 38 39 40 40 41 41 41 43 45 47 51
30 28 27 27 27 27 24 29 27 29 26 24 21 21 22 23 24 25 25 25 25 24 23 24 24 23 23 24 25 26 27 29 30 31 30 28 29 30 31 32 35 37 38 40 42 45 48 50 51
34 30 26 29 31 28 23 28 30 28 28 28 23 23 23 24 26 27 26 26 25 25 26 26 24 23 24 25 26 27 28 30 30 30 30 32 32 33 34 36 35 39 40 41 43 43 48 51 55
37 31 32 32 33 29 27 27 29 26 28 30 28 27 26 27 27 26 27 28 28 27 27 27 28 30 32 31 30 30 33 34 35 39 39 41 42 41 44 45 49 52 55 55 57 63 65 62 65
34 34 37 36 34 32 28 29 28 30 31 32 31 30 29 28 27 27 28 28 28 28 29 29 30 32 33 34 34 37 40 42 45 46 47 49 52 55 55 56 57 59 60 61 63 68 74 73 75
35 36 38 41 33 35 30 30 30 34 35 36 32 30 32 31 29 29 27 28 30 31 31 33 35 37 39 39 42 43 45 47 49 52 52 53 57 59 61 62 64 64 63 65 67 76 77 79 80
40 39 40 41 34 38 37 33 35 33 40 36 35 34 33 33 30 30 29 30 31 34 37 39 40 42 44 45 45 47 50 51 52 54 56 59 61 64 68 69 70 70 70 71 78 80 82 86 83
47 44 44 42 39 36 37 29 36 36 35 39 38 35 35 35 33 34 35 34 34 37 39 40 43 46 48 51 54 54 56 56 56 58 61 62 64 69 71 74 74 77 80 84 87 89 91 91 93
50 52 49 48 43 38 38 25 32 38 40 37 45 39 37 38 38 38 39 40 40 40 40 42 44 48 53 57 59 59 60 59 60 62 64 67 71 74 76 79 79 81 85 87 89 92 94 94 95
53 56 54 53 49 40 39 33 28 41 39 43 48 44 42 44 44 44 43 42 44 43 44 45 47 51 53 55 58 60 62 62 64 68 74 74 75 79 81 82 85 88 91 94 97 99 99 101 100
55 56 54 52 50 42 49 49 30 43 46 49 49 48 44 47 47 48 48 47 47 48 48 50 53 56 57 59 62 65 67 67 72 76 76 78 80 83 84 89 92 96 101 101 99 107 104 108 106
60 56 57 55 54 49 50 49 42 46 51 55 55 53 51 51 51 51 50 50 51 52 53 55 58 60 63 65 66 69 74 75 72 73 77 81 87 91 93 96 100 103 106 108 107 112 113 113 116
61 60 60 59 57 53 53 48 47 50 57 57 56 56 55 55 55 54 53 54 55 57 58 60 63 64 65 68 70 74 73 72 74 81 88 89 91 95 100 101 104 107 109 111 116 116 117 118 123
63 62 66 63 58 54 48 45 47 50 58 58 57 58 59 58 56 56 58 60 61 61 63 66 67 68 69 72 74 75 76 78 83 87 93 96 100 102 103 105 110 110 113 116 114 120 122 125 120
64 63 67 65 62 58 49 46 45 48 58 58 58 57 58 59 59 59 62 62 63 65 68 70 71 73 75 75 75 77 81 85 91 96 101 102 103 105 108 111 116 118 118 118 125 127 121 119 129
67 62 66 68 64 62 56 50 52 51 55 59 61 62 63 66 66 66 65 65 67 69 70 72 73 75 77 78 79 83 89 93 97 100 102 105 109 112 113 120 118 116 119 117 123 127 130 119 123
64 65 65 69 70 68 67 49 59 59 59 63 64 66 67 67 67 66 65 68 70 72 75 78 80 84 85 85 86 88 91 95 98 102 107 111 116 118 116 110 118 124 119 116 119 118 123 129 138